Time,TemperatureF,DewpointF,PressureIn,WindDirection,WindDirectionDegrees,WindSpeedMPH,WindSpeedGustMPH,Humidity,HourlyPrecipIn,Conditions,Clouds,dailyrainin,SoftwareType,DateUTC
2013-04-20 00:01:00,34.9,28.3,29.60,NW,318,3.6,8.3,77,0.00,,,0.00,WUHU215WMR968SP,2013-04-20 04:01:00,
2013-04-20 00:02:00,34.9,28.8,29.60,WNW,291,2.7,8.3,78,0.00,,,0.00,WUHU215WMR968SP,2013-04-20 04:02:00,
2013-04-20 00:07:00,34.7,29.1,29.60,North,357,0.0,5.8,80,0.00,,,0.00,WUHU215WMR968SP,2013-04-20 04:07:00,
2013-04-20 00:12:00,34.5,29.5,29.60,North,1,3.1,6.3,82,0.00,,,0.00,WUHU215WMR968SP,2013-04-20 04:12:00,
2013-04-20 00:17:00,34.2,32.0,29.60,NNE,27,2.7,6.3,92,0.00,,,0.00,WUHU215WMR968SP,2013-04-20 04:17:00,
2013-04-20 00:22:00,33.4,33.4,29.60,NNE,13,3.1,6.3,100,0.00,,,0.00,WUHU215WMR968SP,2013-04-20 04:22:00,
2013-04-20 00:27:00,33.1,33.1,29.60,ENE,64,2.7,8.7,100,0.00,,,0.00,WUHU215WMR968SP,2013-04-20 04:27:00,
2013-04-20 00:32:00,32.9,32.9,29.63,NE,47,2.7,8.7,100,0.00,,,0.00,WUHU215WMR968SP,2013-04-20 04:32:00,
2013-04-20 00:37:00,32.7,31.4,29.63,NE,46,6.3,8.7,95,0.00,,,0.00,WUHU215WMR968SP,2013-04-20 04:37:00,
2013-04-20 00:42:00,32.9,30.3,29.63,NE,46,3.6,8.7,90,0.00,,,0.00,WUHU215WMR968SP,2013-04-20 04:42:00,
2013-04-20 00:47:00,33.1,30.5,29.63,NE,44,7.6,13.2,90,0.00,,,0.00,WUHU215WMR968SP,2013-04-20 04:47:00,
2013-04-20 00:52:00,33.1,31.4,29.63,NE,43,4.9,13.2,94,0.00,,,0.00,WUHU215WMR968SP,2013-04-20 04:52:00,
2013-04-20 00:57:00,32.5,32.1,29.63,NE,42,2.7,12.3,99,0.00,,,0.00,WUHU215WMR968SP,2013-04-20 04:57:00,
2013-04-20 01:02:00,31.8,31.8,29.63,NE,42,3.1,8.1,100,0.00,,,0.00,WUHU215WMR968SP,2013-04-20 05:02:00,
2013-04-20 01:07:00,31.3,31.3,29.63,NE,42,0.0,6.3,100,0.00,,,0.00,WUHU215WMR968SP,2013-04-20 05:07:00,
2013-04-20 01:12:00,31.3,31.3,29.63,NE,42,0.0,5.8,100,0.00,,,0.00,WUHU215WMR968SP,2013-04-20 05:12:00,
2013-04-20 01:17:00,31.3,31.3,29.63,NE,42,2.2,4.9,100,0.00,,,0.00,WUHU215WMR968SP,2013-04-20 05:17:00,
2013-04-20 01:22:00,31.5,31.5,29.63,NE,42,0.0,4.9,100,0.00,,,0.00,WUHU215WMR968SP,2013-04-20 05:22:00,
2013-04-20 01:27:00,31.5,30.7,29.63,NE,42,5.4,11.0,97,0.00,,,0.00,WUHU215WMR968SP,2013-04-20 05:27:00,
2013-04-20 01:32:00,31.8,30.1,29.63,NE,42,0.0,11.0,94,0.00,,,0.00,WUHU215WMR968SP,2013-04-20 05:32:00,
2013-04-20 01:37:00,32.0,28.0,29.63,NE,42,4.5,7.6,85,0.00,,,0.00,WUHU215WMR968SP,2013-04-20 05:37:00,
2013-04-20 01:42:00,32.5,26.0,29.63,NE,42,4.5,9.2,77,0.00,,,0.00,WUHU215WMR968SP,2013-04-20 05:42:00,
2013-04-20 01:47:00,32.7,26.2,29.66,NE,42,3.6,13.2,77,0.00,,,0.00,WUHU215WMR968SP,2013-04-20 05:47:00,
2013-04-20 01:52:00,32.7,26.2,29.66,NE,42,2.7,13.2,77,0.00,,,0.00,WUHU215WMR968SP,2013-04-20 05:52:00,
2013-04-20 01:57:00,32.5,25.4,29.66,NE,42,5.4,8.3,75,0.00,,,0.00,WUHU215WMR968SP,2013-04-20 05:57:00,
2013-04-20 02:02:00,32.4,25.3,29.66,NE,42,2.2,8.3,75,0.00,,,0.00,WUHU215WMR968SP,2013-04-20 06:02:00,
2013-04-20 02:07:00,32.2,25.1,29.66,NE,42,2.2,8.3,75,0.00,,,0.00,WUHU215WMR968SP,2013-04-20 06:07:00,
2013-04-20 02:12:00,31.8,25.3,29.66,NE,42,2.2,9.2,77,0.00,,,0.00,WUHU215WMR968SP,2013-04-20 06:12:00,
2013-04-20 02:17:00,32.0,25.5,29.66,NE,42,3.1,9.2,77,0.00,,,0.00,WUHU215WMR968SP,2013-04-20 06:17:00,
2013-04-20 02:22:00,32.0,25.0,29.66,NE,42,3.6,8.3,75,0.00,,,0.00,WUHU215WMR968SP,2013-04-20 06:22:00,
2013-04-20 02:27:00,32.2,25.1,29.66,NE,42,3.6,8.3,75,0.00,,,0.00,WUHU215WMR968SP,2013-04-20 06:27:00,
2013-04-20 02:32:00,32.4,24.8,29.66,NE,42,2.7,7.6,73,0.00,,,0.00,WUHU215WMR968SP,2013-04-20 06:32:00,
2013-04-20 02:37:00,32.4,23.7,29.66,NE,42,7.6,10.5,70,0.00,,,0.00,WUHU215WMR968SP,2013-04-20 06:37:00,
2013-04-20 02:42:00,32.5,23.8,29.66,NE,42,4.9,10.5,70,0.00,,,0.00,WUHU215WMR968SP,2013-04-20 06:42:00,
2013-04-20 02:47:00,32.5,23.8,29.69,NE,42,3.6,8.3,70,0.00,,,0.00,WUHU215WMR968SP,2013-04-20 06:47:00,
2013-04-20 02:52:00,32.5,23.8,29.69,NE,42,4.0,12.3,70,0.00,,,0.00,WUHU215WMR968SP,2013-04-20 06:52:00,
2013-04-20 02:57:00,32.5,23.8,29.69,NE,42,7.2,12.3,70,0.00,,,0.00,WUHU215WMR968SP,2013-04-20 06:57:00,
2013-04-20 03:02:00,32.4,23.1,29.69,NE,42,6.7,12.8,68,0.00,,,0.00,WUHU215WMR968SP,2013-04-20 07:02:00,
2013-04-20 03:07:00,32.4,23.1,29.69,NE,41,7.2,12.8,68,0.00,,,0.00,WUHU215WMR968SP,2013-04-20 07:07:00,
2013-04-20 03:12:00,32.2,22.9,29.69,NE,41,4.5,12.3,68,0.00,,,0.00,WUHU215WMR968SP,2013-04-20 07:12:00,
2013-04-20 03:17:00,32.2,22.9,29.69,NE,41,4.0,12.3,68,0.00,,,0.00,WUHU215WMR968SP,2013-04-20 07:17:00,
2013-04-20 03:22:00,32.0,23.3,29.69,NE,41,5.8,12.3,70,0.00,,,0.00,WUHU215WMR968SP,2013-04-20 07:22:00,
2013-04-20 03:27:00,31.6,22.3,29.69,NE,41,8.1,12.3,68,0.00,,,0.00,WUHU215WMR968SP,2013-04-20 07:27:00,
2013-04-20 03:32:00,31.1,21.8,29.72,NE,41,9.2,13.2,68,0.00,,,0.00,WUHU215WMR968SP,2013-04-20 07:32:00,
2013-04-20 03:37:00,30.7,22.0,29.72,NE,41,4.5,13.2,70,0.00,,,0.00,WUHU215WMR968SP,2013-04-20 07:37:00,
2013-04-20 03:42:00,30.4,21.7,29.72,NE,41,3.1,11.4,70,0.00,,,0.00,WUHU215WMR968SP,2013-04-20 07:42:00,
2013-04-20 03:47:00,30.2,21.6,29.72,NE,41,4.5,11.4,70,0.00,,,0.00,WUHU215WMR968SP,2013-04-20 07:47:00,
2013-04-20 03:52:00,30.2,22.1,29.72,NE,41,3.1,8.1,71,0.00,,,0.00,WUHU215WMR968SP,2013-04-20 07:52:00,
2013-04-20 03:57:00,30.2,22.1,29.72,NE,41,4.5,8.3,71,0.00,,,0.00,WUHU215WMR968SP,2013-04-20 07:57:00,
2013-04-20 04:02:00,30.0,21.9,29.72,NE,41,4.0,8.3,71,0.00,,,0.00,WUHU215WMR968SP,2013-04-20 08:02:00,
2013-04-20 04:07:00,30.0,21.4,29.72,NE,41,5.8,6.7,70,0.00,,,0.00,WUHU215WMR968SP,2013-04-20 08:07:00,
2013-04-20 04:12:00,30.2,21.6,29.72,NE,41,2.7,7.6,70,0.00,,,0.00,WUHU215WMR968SP,2013-04-20 08:12:00,
2013-04-20 04:17:00,30.2,21.6,29.75,NE,41,4.0,7.6,70,0.00,,,0.00,WUHU215WMR968SP,2013-04-20 08:17:00,
2013-04-20 04:22:00,30.2,21.6,29.75,NE,41,5.8,10.5,70,0.00,,,0.00,WUHU215WMR968SP,2013-04-20 08:22:00,
2013-04-20 04:27:00,30.2,21.6,29.75,NE,41,4.0,10.5,70,0.00,,,0.00,WUHU215WMR968SP,2013-04-20 08:27:00,
2013-04-20 04:32:00,30.2,21.6,29.75,NE,41,3.6,6.7,70,0.00,,,0.00,WUHU215WMR968SP,2013-04-20 08:32:00,
2013-04-20 04:37:00,30.0,21.4,29.75,NE,41,4.5,8.3,70,0.00,,,0.00,WUHU215WMR968SP,2013-04-20 08:37:00,
2013-04-20 04:42:00,30.0,21.4,29.75,NE,41,3.6,8.7,70,0.00,,,0.00,WUHU215WMR968SP,2013-04-20 08:42:00,
2013-04-20 04:47:00,30.0,21.4,29.75,NE,41,3.1,8.7,70,0.00,,,0.00,WUHU215WMR968SP,2013-04-20 08:47:00,
2013-04-20 04:52:00,29.8,21.2,29.75,NE,41,2.7,8.1,70,0.00,,,0.00,WUHU215WMR968SP,2013-04-20 08:52:00,
2013-04-20 04:57:00,29.7,21.1,29.75,NE,41,4.0,8.1,70,0.00,,,0.00,WUHU215WMR968SP,2013-04-20 08:57:00,
2013-04-20 05:02:00,29.7,21.1,29.78,NE,41,5.4,8.1,70,0.00,,,0.00,WUHU215WMR968SP,2013-04-20 09:02:00,
2013-04-20 05:07:00,29.5,20.9,29.78,NE,41,5.4,9.2,70,0.00,,,0.00,WUHU215WMR968SP,2013-04-20 09:07:00,
2013-04-20 05:12:00,29.5,21.4,29.78,NE,41,2.7,10.1,71,0.00,,,0.00,WUHU215WMR968SP,2013-04-20 09:12:00,
2013-04-20 05:17:00,29.3,21.2,29.78,NE,41,4.0,10.1,71,0.00,,,0.00,WUHU215WMR968SP,2013-04-20 09:17:00,
2013-04-20 05:22:00,29.3,21.2,29.78,NE,41,4.9,10.1,71,0.00,,,0.00,WUHU215WMR968SP,2013-04-20 09:22:00,
2013-04-20 05:27:00,29.1,21.6,29.78,NE,41,4.9,7.6,73,0.00,,,0.00,WUHU215WMR968SP,2013-04-20 09:27:00,
2013-04-20 05:32:00,29.1,21.1,29.78,NE,41,2.2,7.6,71,0.00,,,0.00,WUHU215WMR968SP,2013-04-20 09:32:00,
2013-04-20 05:37:00,29.1,21.1,29.78,NE,41,3.6,7.6,71,0.00,,,0.00,WUHU215WMR968SP,2013-04-20 09:37:00,
2013-04-20 05:42:00,29.1,21.1,29.78,NE,41,3.6,7.6,71,0.00,,,0.00,WUHU215WMR968SP,2013-04-20 09:42:00,
2013-04-20 05:47:00,29.1,21.1,29.78,NE,41,3.1,8.7,71,0.00,,,0.00,WUHU215WMR968SP,2013-04-20 09:47:00,
2013-04-20 05:52:00,29.3,21.8,29.78,NE,41,3.1,8.7,73,0.00,,,0.00,WUHU215WMR968SP,2013-04-20 09:52:00,
2013-04-20 05:57:00,29.3,21.8,29.78,NE,41,2.7,6.3,73,0.00,,,0.00,WUHU215WMR968SP,2013-04-20 09:57:00,
2013-04-20 06:02:00,29.1,22.7,29.78,NE,41,4.0,7.6,77,0.00,,,0.00,WUHU215WMR968SP,2013-04-20 10:02:00,
2013-04-20 06:07:00,29.1,23.2,29.78,NE,41,3.6,7.6,78,0.00,,,0.00,WUHU215WMR968SP,2013-04-20 10:07:00,
2013-04-20 06:12:00,28.9,24.0,29.78,NE,41,4.0,6.7,82,0.00,,,0.00,WUHU215WMR968SP,2013-04-20 10:12:00,
2013-04-20 06:17:00,28.8,24.8,29.81,NE,41,5.4,10.1,85,0.00,,,0.00,WUHU215WMR968SP,2013-04-20 10:17:00,
2013-04-20 06:22:00,28.6,25.1,29.81,NE,41,3.1,10.1,87,0.00,,,0.00,WUHU215WMR968SP,2013-04-20 10:22:00,
2013-04-20 06:27:00,28.4,25.4,29.81,NE,41,5.8,8.7,88,0.00,,,0.00,WUHU215WMR968SP,2013-04-20 10:27:00,
2013-04-20 06:32:00,28.4,24.9,29.81,NE,41,6.3,9.6,87,0.00,,,0.00,WUHU215WMR968SP,2013-04-20 10:32:00,
2013-04-20 06:37:00,28.4,24.9,29.81,NE,41,3.1,9.6,87,0.00,,,0.00,WUHU215WMR968SP,2013-04-20 10:37:00,
2013-04-20 06:42:00,28.4,24.9,29.81,NE,41,2.7,8.1,87,0.00,,,0.00,WUHU215WMR968SP,2013-04-20 10:42:00,
2013-04-20 06:47:00,28.6,25.1,29.81,NE,41,4.0,7.6,87,0.00,,,0.00,WUHU215WMR968SP,2013-04-20 10:47:00,
2013-04-20 06:52:00,28.6,25.1,29.81,NE,41,4.9,7.6,87,0.00,,,0.00,WUHU215WMR968SP,2013-04-20 10:52:00,
2013-04-20 06:57:00,28.6,25.1,29.81,NE,41,4.0,7.6,87,0.00,,,0.00,WUHU215WMR968SP,2013-04-20 10:57:00,
2013-04-20 07:02:00,28.6,25.6,29.84,NE,41,4.9,8.3,88,0.00,,,0.00,WUHU215WMR968SP,2013-04-20 11:02:00,
2013-04-20 07:07:00,28.4,25.4,29.84,NE,41,3.1,8.3,88,0.00,,,0.00,WUHU215WMR968SP,2013-04-20 11:07:00,
2013-04-20 07:12:00,28.2,25.2,29.84,NE,41,3.1,6.3,88,0.00,,,0.00,WUHU215WMR968SP,2013-04-20 11:12:00,
2013-04-20 07:17:00,28.2,25.2,29.84,NE,41,3.1,8.3,88,0.00,,,0.00,WUHU215WMR968SP,2013-04-20 11:17:00,
2013-04-20 07:22:00,28.2,25.2,29.84,NE,41,2.2,8.3,88,0.00,,,0.00,WUHU215WMR968SP,2013-04-20 11:22:00,
2013-04-20 07:27:00,28.4,25.4,29.84,NE,41,0.0,5.4,88,0.00,,,0.00,WUHU215WMR968SP,2013-04-20 11:27:00,
2013-04-20 07:32:00,28.6,25.6,29.84,NE,41,3.1,6.3,88,0.00,,,0.00,WUHU215WMR968SP,2013-04-20 11:32:00,
2013-04-20 07:37:00,28.6,25.1,29.84,NE,41,2.7,6.3,87,0.00,,,0.00,WUHU215WMR968SP,2013-04-20 11:37:00,
2013-04-20 07:42:00,28.8,25.3,29.84,NE,41,2.7,5.4,87,0.00,,,0.00,WUHU215WMR968SP,2013-04-20 11:42:00,
2013-04-20 07:47:00,28.8,24.4,29.87,NE,41,4.5,5.8,83,0.00,,,0.00,WUHU215WMR968SP,2013-04-20 11:47:00,
2013-04-20 07:52:00,28.9,24.0,29.87,NE,41,3.6,5.8,82,0.00,,,0.00,WUHU215WMR968SP,2013-04-20 11:52:00,
2013-04-20 07:57:00,28.9,21.9,29.87,NE,41,2.2,8.1,75,0.00,,,0.00,WUHU215WMR968SP,2013-04-20 11:57:00,
2013-04-20 08:02:00,29.1,22.7,29.87,NE,41,3.1,8.1,77,0.00,,,0.00,WUHU215WMR968SP,2013-04-20 12:02:00,
2013-04-20 08:07:00,29.3,21.8,29.87,NE,41,6.3,10.1,73,0.00,,,0.00,WUHU215WMR968SP,2013-04-20 12:07:00,
2013-04-20 08:12:00,29.3,21.8,29.87,NE,41,3.6,10.1,73,0.00,,,0.00,WUHU215WMR968SP,2013-04-20 12:12:00,
2013-04-20 08:17:00,29.5,21.4,29.90,NE,41,3.1,6.3,71,0.00,,,0.00,WUHU215WMR968SP,2013-04-20 12:17:00,
2013-04-20 08:22:00,29.5,21.4,29.90,NE,41,3.1,5.8,71,0.00,,,0.00,WUHU215WMR968SP,2013-04-20 12:22:00,
2013-04-20 08:27:00,29.7,21.6,29.90,NE,41,4.0,5.8,71,0.00,,,0.00,WUHU215WMR968SP,2013-04-20 12:27:00,
2013-04-20 08:32:00,29.7,21.6,29.90,NE,41,3.6,5.8,71,0.00,,,0.00,WUHU215WMR968SP,2013-04-20 12:32:00,
2013-04-20 08:37:00,29.8,21.7,29.90,NE,41,2.2,5.8,71,0.00,,,0.00,WUHU215WMR968SP,2013-04-20 12:37:00,
2013-04-20 08:42:00,29.8,21.7,29.90,NE,41,2.7,6.3,71,0.00,,,0.00,WUHU215WMR968SP,2013-04-20 12:42:00,
2013-04-20 08:47:00,29.8,21.7,29.90,NE,41,3.1,6.3,71,0.00,,,0.00,WUHU215WMR968SP,2013-04-20 12:47:00,
2013-04-20 08:52:00,29.8,21.7,29.90,NE,41,0.0,5.8,71,0.00,,,0.00,WUHU215WMR968SP,2013-04-20 12:52:00,
2013-04-20 08:57:00,30.4,22.9,29.90,NE,41,0.0,5.8,73,0.00,,,0.00,WUHU215WMR968SP,2013-04-20 12:57:00,
2013-04-20 09:02:00,30.6,23.1,29.93,NE,41,3.6,5.8,73,0.00,,,0.00,WUHU215WMR968SP,2013-04-20 13:02:00,
2013-04-20 09:07:00,30.6,22.5,29.93,NE,41,3.6,5.8,71,0.00,,,0.00,WUHU215WMR968SP,2013-04-20 13:07:00,
2013-04-20 09:12:00,30.7,22.6,29.93,NE,41,4.0,5.8,71,0.00,,,0.00,WUHU215WMR968SP,2013-04-20 13:12:00,
2013-04-20 09:17:00,30.7,23.2,29.93,NE,41,3.1,5.8,73,0.00,,,0.00,WUHU215WMR968SP,2013-04-20 13:17:00,
2013-04-20 09:22:00,30.9,23.3,29.93,NE,41,3.1,4.9,73,0.00,,,0.00,WUHU215WMR968SP,2013-04-20 13:22:00,
2013-04-20 09:27:00,30.9,23.3,29.93,NE,41,2.2,5.4,73,0.00,,,0.00,WUHU215WMR968SP,2013-04-20 13:27:00,
2013-04-20 09:32:00,31.1,23.5,29.93,NNE,32,0.0,6.3,73,0.00,,,0.00,WUHU215WMR968SP,2013-04-20 13:32:00,
2013-04-20 09:37:00,31.3,23.7,29.93,NNW,334,4.0,6.3,73,0.00,,,0.00,WUHU215WMR968SP,2013-04-20 13:37:00,
2013-04-20 09:42:00,31.5,23.4,29.93,NNE,29,2.2,6.3,71,0.00,,,0.00,WUHU215WMR968SP,2013-04-20 13:42:00,
2013-04-20 09:47:00,31.8,23.7,29.93,SSE,158,3.6,6.3,71,0.00,,,0.00,WUHU215WMR968SP,2013-04-20 13:47:00,
2013-04-20 09:52:00,32.2,23.5,29.93,NNE,17,0.0,6.3,70,0.00,,,0.00,WUHU215WMR968SP,2013-04-20 13:52:00,
2013-04-20 09:57:00,32.4,24.2,29.93,NE,43,3.1,6.7,71,0.00,,,0.00,WUHU215WMR968SP,2013-04-20 13:57:00,
2013-04-20 10:02:00,32.7,24.5,29.93,North,357,3.1,6.7,71,0.00,,,0.00,WUHU215WMR968SP,2013-04-20 14:02:00,
2013-04-20 10:07:00,32.5,23.2,29.93,North,353,3.6,6.7,68,0.00,,,0.00,WUHU215WMR968SP,2013-04-20 14:07:00,
2013-04-20 10:12:00,32.5,23.8,29.93,NNE,26,3.1,6.7,70,0.00,,,0.00,WUHU215WMR968SP,2013-04-20 14:12:00,
2013-04-20 10:17:00,32.5,23.2,29.93,NE,54,4.0,6.3,68,0.00,,,0.00,WUHU215WMR968SP,2013-04-20 14:17:00,
2013-04-20 10:22:00,32.7,23.4,29.93,NE,51,4.5,8.3,68,0.00,,,0.00,WUHU215WMR968SP,2013-04-20 14:22:00,
2013-04-20 10:27:00,33.1,23.1,29.93,NE,51,2.7,8.3,66,0.00,,,0.00,WUHU215WMR968SP,2013-04-20 14:27:00,
2013-04-20 10:32:00,33.4,22.8,29.96,NE,50,3.1,6.3,65,0.00,,,0.00,WUHU215WMR968SP,2013-04-20 14:32:00,
2013-04-20 10:37:00,33.3,20.1,29.96,NE,46,5.4,7.6,58,0.00,,,0.00,WUHU215WMR968SP,2013-04-20 14:37:00,
2013-04-20 10:42:00,33.4,21.5,29.96,NE,46,3.1,7.6,61,0.00,,,0.00,WUHU215WMR968SP,2013-04-20 14:42:00,
2013-04-20 10:47:00,33.6,22.4,29.99,NE,35,4.0,8.3,63,0.00,,,0.00,WUHU215WMR968SP,2013-04-20 14:47:00,
2013-04-20 10:52:00,33.3,22.1,29.99,NNE,20,0.0,8.3,63,0.00,,,0.00,WUHU215WMR968SP,2013-04-20 14:52:00,
2013-04-20 10:57:00,33.3,23.9,29.99,NNE,20,4.0,8.3,68,0.00,,,0.00,WUHU215WMR968SP,2013-04-20 14:57:00,
2013-04-20 11:02:00,33.4,23.4,29.99,NE,42,4.9,8.3,66,0.00,,,0.00,WUHU215WMR968SP,2013-04-20 15:02:00,
2013-04-20 11:07:00,33.6,24.2,29.99,NE,44,6.3,8.7,68,0.00,,,0.00,WUHU215WMR968SP,2013-04-20 15:07:00,
2013-04-20 11:12:00,33.3,23.9,29.99,NE,53,5.4,10.5,68,0.00,,,0.00,WUHU215WMR968SP,2013-04-20 15:12:00,
2013-04-20 11:17:00,33.3,24.5,29.99,NNW,337,3.1,10.5,70,0.00,,,0.00,WUHU215WMR968SP,2013-04-20 15:17:00,
2013-04-20 11:22:00,33.1,23.8,29.99,NNW,343,2.7,7.2,68,0.00,,,0.00,WUHU215WMR968SP,2013-04-20 15:22:00,
2013-04-20 11:27:00,33.1,24.3,29.99,NNE,26,3.1,8.1,70,0.00,,,0.00,WUHU215WMR968SP,2013-04-20 15:27:00,
2013-04-20 11:32:00,33.1,23.8,29.99,NNE,30,4.0,10.1,68,0.00,,,0.00,WUHU215WMR968SP,2013-04-20 15:32:00,
2013-04-20 11:37:00,33.4,24.0,29.99,NE,38,4.0,10.1,68,0.00,,,0.00,WUHU215WMR968SP,2013-04-20 15:37:00,
2013-04-20 11:42:00,34.7,25.9,29.99,NNW,346,4.9,7.6,70,0.00,,,0.00,WUHU215WMR968SP,2013-04-20 15:42:00,
2013-04-20 11:47:00,35.1,22.5,30.02,NE,48,3.6,7.6,60,0.00,,,0.00,WUHU215WMR968SP,2013-04-20 15:47:00,
2013-04-20 11:52:00,34.7,23.4,30.02,NE,36,2.7,8.1,63,0.00,,,0.00,WUHU215WMR968SP,2013-04-20 15:52:00,
2013-04-20 11:57:00,34.2,24.2,30.02,NE,55,3.6,8.3,66,0.00,,,0.00,WUHU215WMR968SP,2013-04-20 15:57:00,
2013-04-20 12:02:00,34.2,24.8,30.02,NNW,331,2.7,8.3,68,0.00,,,0.00,WUHU215WMR968SP,2013-04-20 16:02:00,
2013-04-20 12:07:00,34.5,25.1,30.02,NE,34,3.1,6.3,68,0.00,,,0.00,WUHU215WMR968SP,2013-04-20 16:07:00,
2013-04-20 12:12:00,34.2,24.8,30.02,NNW,342,3.1,8.1,68,0.00,,,0.00,WUHU215WMR968SP,2013-04-20 16:12:00,
2013-04-20 12:17:00,34.2,24.8,29.99,North,9,4.0,8.3,68,0.00,,,0.00,WUHU215WMR968SP,2013-04-20 16:17:00,
2013-04-20 12:22:00,34.5,25.7,29.99,ENE,64,5.4,8.3,70,0.00,,,0.00,WUHU215WMR968SP,2013-04-20 16:22:00,
2013-04-20 12:27:00,34.3,24.9,29.99,NNW,337,3.6,8.3,68,0.00,,,0.00,WUHU215WMR968SP,2013-04-20 16:27:00,
2013-04-20 12:32:00,34.5,25.1,30.02,North,357,2.7,8.3,68,0.00,,,0.00,WUHU215WMR968SP,2013-04-20 16:32:00,
2013-04-20 12:37:00,35.1,25.7,30.02,West,264,3.6,8.7,68,0.00,,,0.00,WUHU215WMR968SP,2013-04-20 16:37:00,
2013-04-20 12:42:00,35.1,22.5,30.02,NE,53,5.4,8.7,60,0.00,,,0.00,WUHU215WMR968SP,2013-04-20 16:42:00,
2013-04-20 12:47:00,34.5,21.9,30.02,ENE,77,6.7,11.4,60,0.00,,,0.00,WUHU215WMR968SP,2013-04-20 16:47:00,
2013-04-20 12:52:00,34.7,23.4,30.02,North,9,3.6,11.4,63,0.00,,,0.00,WUHU215WMR968SP,2013-04-20 16:52:00,
2013-04-20 12:57:00,34.9,25.5,30.02,NW,318,3.1,8.3,68,0.00,,,0.00,WUHU215WMR968SP,2013-04-20 16:57:00,
2013-04-20 13:02:00,35.1,23.1,30.02,NE,42,5.4,8.3,61,0.00,,,0.00,WUHU215WMR968SP,2013-04-20 17:02:00,
2013-04-20 13:07:00,34.7,24.7,30.02,South,188,3.1,8.1,66,0.00,,,0.00,WUHU215WMR968SP,2013-04-20 17:07:00,
2013-04-20 13:12:00,35.1,25.7,30.02,NE,50,2.2,8.1,68,0.00,,,0.00,WUHU215WMR968SP,2013-04-20 17:12:00,
2013-04-20 13:17:00,35.4,25.3,30.02,North,357,4.5,8.7,66,0.00,,,0.00,WUHU215WMR968SP,2013-04-20 17:17:00,
2013-04-20 13:22:00,34.9,24.2,30.05,ENE,76,3.6,8.7,65,0.00,,,0.00,WUHU215WMR968SP,2013-04-20 17:22:00,
2013-04-20 13:27:00,34.7,25.3,30.05,North,10,4.9,10.1,68,0.00,,,0.00,WUHU215WMR968SP,2013-04-20 17:27:00,
2013-04-20 13:32:00,34.9,24.9,30.05,NNE,20,5.8,10.1,66,0.00,,,0.00,WUHU215WMR968SP,2013-04-20 17:32:00,
2013-04-20 13:37:00,34.7,24.1,30.05,WNW,294,3.6,8.7,65,0.00,,,0.00,WUHU215WMR968SP,2013-04-20 17:37:00,
2013-04-20 13:42:00,34.5,21.2,30.05,NE,41,5.8,10.1,58,0.00,,,0.00,WUHU215WMR968SP,2013-04-20 17:42:00,
2013-04-20 13:47:00,34.7,22.1,30.05,NE,50,5.8,10.1,60,0.00,,,0.00,WUHU215WMR968SP,2013-04-20 17:47:00,
2013-04-20 13:52:00,34.9,22.9,30.05,NE,49,4.5,8.3,61,0.00,,,0.00,WUHU215WMR968SP,2013-04-20 17:52:00,
2013-04-20 13:57:00,35.6,25.5,30.05,ENE,68,3.6,8.3,66,0.00,,,0.00,WUHU215WMR968SP,2013-04-20 17:57:00,
2013-04-20 14:02:00,36.1,22.7,30.05,ENE,71,6.3,11.0,58,0.04,,,0.04,WUHU215WMR968SP,2013-04-20 18:02:00,
2013-04-20 14:07:00,35.8,22.4,30.05,NNW,346,3.6,11.0,58,0.04,,,0.04,WUHU215WMR968SP,2013-04-20 18:07:00,
2013-04-20 14:12:00,36.5,23.1,30.05,NE,35,4.9,8.3,58,0.04,,,0.04,WUHU215WMR968SP,2013-04-20 18:12:00,
2013-04-20 14:17:00,36.9,23.4,30.05,ENE,61,4.0,8.1,58,0.04,,,0.04,WUHU215WMR968SP,2013-04-20 18:17:00,
2013-04-20 14:22:00,37.0,23.5,30.05,NE,51,3.6,10.1,58,0.04,,,0.04,WUHU215WMR968SP,2013-04-20 18:22:00,
2013-04-20 14:27:00,37.0,22.1,30.05,NE,45,4.0,10.1,54,0.04,,,0.04,WUHU215WMR968SP,2013-04-20 18:27:00,
2013-04-20 14:32:00,37.4,21.7,30.08,NNW,345,4.9,8.7,53,0.04,,,0.04,WUHU215WMR968SP,2013-04-20 18:32:00,
2013-04-20 14:37:00,38.5,25.0,30.08,ENE,68,4.0,8.7,58,0.04,,,0.04,WUHU215WMR968SP,2013-04-20 18:37:00,
2013-04-20 14:42:00,38.5,23.5,30.08,WSW,258,3.6,8.3,54,0.04,,,0.04,WUHU215WMR968SP,2013-04-20 18:42:00,
2013-04-20 14:47:00,38.3,22.5,30.08,NE,53,4.5,8.3,53,0.04,,,0.04,WUHU215WMR968SP,2013-04-20 18:47:00,
2013-04-20 14:52:00,37.9,22.1,30.08,North,7,4.5,15.0,53,0.04,,,0.04,WUHU215WMR968SP,2013-04-20 18:52:00,
2013-04-20 14:57:00,37.4,21.7,30.08,NNE,26,4.0,15.0,53,0.04,,,0.04,WUHU215WMR968SP,2013-04-20 18:57:00,
2013-04-20 15:02:00,37.0,22.1,30.08,ENE,66,3.6,9.2,54,0.00,,,0.04,WUHU215WMR968SP,2013-04-20 19:02:00,
2013-04-20 15:07:00,37.2,23.7,30.08,West,269,2.2,9.2,58,0.00,,,0.04,WUHU215WMR968SP,2013-04-20 19:07:00,
2013-04-20 15:12:00,38.3,24.8,30.08,WNW,299,2.7,8.1,58,0.00,,,0.04,WUHU215WMR968SP,2013-04-20 19:12:00,
2013-04-20 15:17:00,37.9,22.9,30.08,North,11,2.7,6.3,54,0.00,,,0.04,WUHU215WMR968SP,2013-04-20 19:17:00,
2013-04-20 15:22:00,37.4,21.7,30.08,NNE,30,3.6,8.1,53,0.00,,,0.04,WUHU215WMR968SP,2013-04-20 19:22:00,
2013-04-20 15:27:00,37.8,23.6,30.08,ENE,70,4.0,8.1,56,0.00,,,0.04,WUHU215WMR968SP,2013-04-20 19:27:00,
2013-04-20 15:32:00,38.7,25.1,30.11,NNE,26,4.5,6.7,58,0.00,,,0.04,WUHU215WMR968SP,2013-04-20 19:32:00,
2013-04-20 15:37:00,38.8,23.0,30.11,NNW,327,4.0,12.8,53,0.00,,,0.04,WUHU215WMR968SP,2013-04-20 19:37:00,
2013-04-20 15:42:00,38.8,24.5,30.11,NNW,332,4.0,12.8,56,0.00,,,0.04,WUHU215WMR968SP,2013-04-20 19:42:00,
2013-04-20 15:47:00,38.7,24.4,30.11,NNW,344,3.6,8.1,56,0.00,,,0.04,WUHU215WMR968SP,2013-04-20 19:47:00,
2013-04-20 15:52:00,39.2,24.1,30.11,SSW,197,4.0,7.6,54,0.00,,,0.04,WUHU215WMR968SP,2013-04-20 19:52:00,
2013-04-20 15:57:00,40.3,24.4,30.11,NNW,328,3.6,5.8,53,0.00,,,0.04,WUHU215WMR968SP,2013-04-20 19:57:00,
2013-04-20 16:02:00,39.9,23.2,30.11,NNE,17,5.4,7.6,51,0.00,,,0.04,WUHU215WMR968SP,2013-04-20 20:02:00,
2013-04-20 16:07:00,39.4,22.7,30.11,NNE,28,3.6,8.1,51,0.00,,,0.04,WUHU215WMR968SP,2013-04-20 20:07:00,
2013-04-20 16:12:00,39.7,23.8,30.11,NE,41,2.2,8.1,53,0.00,,,0.04,WUHU215WMR968SP,2013-04-20 20:12:00,
2013-04-20 16:17:00,39.4,22.7,30.11,NE,47,4.9,7.6,51,0.00,,,0.04,WUHU215WMR968SP,2013-04-20 20:17:00,
2013-04-20 16:22:00,38.5,22.7,30.11,NNE,14,3.1,10.5,53,0.00,,,0.04,WUHU215WMR968SP,2013-04-20 20:22:00,
2013-04-20 16:27:00,37.9,22.1,30.11,North,6,3.1,10.5,53,0.00,,,0.04,WUHU215WMR968SP,2013-04-20 20:27:00,
2013-04-20 16:32:00,38.3,22.5,30.11,NNW,332,4.5,8.1,53,0.00,,,0.04,WUHU215WMR968SP,2013-04-20 20:32:00,
2013-04-20 16:37:00,38.7,22.1,30.11,North,353,4.5,6.3,51,0.00,,,0.04,WUHU215WMR968SP,2013-04-20 20:37:00,
2013-04-20 16:42:00,39.0,23.2,30.11,North,3,2.2,7.2,53,0.00,,,0.04,WUHU215WMR968SP,2013-04-20 20:42:00,
2013-04-20 16:47:00,39.7,23.8,30.14,North,0,3.1,7.2,53,0.00,,,0.04,WUHU215WMR968SP,2013-04-20 20:47:00,
2013-04-20 16:52:00,39.4,21.9,30.14,North,357,4.5,7.2,49,0.00,,,0.04,WUHU215WMR968SP,2013-04-20 20:52:00,
2013-04-20 16:57:00,38.1,21.5,30.14,North,0,2.7,7.2,51,0.00,,,0.04,WUHU215WMR968SP,2013-04-20 20:57:00,
2013-04-20 17:02:00,37.6,21.1,30.14,ENE,75,6.3,10.1,51,0.00,,,0.04,WUHU215WMR968SP,2013-04-20 21:02:00,
2013-04-20 17:07:00,37.8,21.2,30.14,East,95,4.9,10.1,51,0.00,,,0.04,WUHU215WMR968SP,2013-04-20 21:07:00,
2013-04-20 17:12:00,37.6,21.1,30.14,West,259,3.1,8.7,51,0.00,,,0.04,WUHU215WMR968SP,2013-04-20 21:12:00,
2013-04-20 17:17:00,37.4,20.9,30.14,North,8,3.6,8.7,51,0.00,,,0.04,WUHU215WMR968SP,2013-04-20 21:17:00,
2013-04-20 17:22:00,37.9,21.3,30.14,NW,308,4.0,8.1,51,0.00,,,0.04,WUHU215WMR968SP,2013-04-20 21:22:00,
2013-04-20 17:27:00,38.5,21.1,30.14,NE,50,4.5,10.1,49,0.00,,,0.04,WUHU215WMR968SP,2013-04-20 21:27:00,
2013-04-20 17:32:00,37.9,20.5,30.14,NNE,19,2.2,10.1,49,0.00,,,0.04,WUHU215WMR968SP,2013-04-20 21:32:00,
2013-04-20 17:37:00,38.7,22.1,30.14,West,278,3.1,5.4,51,0.00,,,0.04,WUHU215WMR968SP,2013-04-20 21:37:00,
2013-04-20 17:42:00,38.7,21.3,30.14,NE,53,3.6,7.6,49,0.00,,,0.04,WUHU215WMR968SP,2013-04-20 21:42:00,
2013-04-20 17:47:00,38.7,21.3,30.14,North,353,3.1,8.3,49,0.00,,,0.04,WUHU215WMR968SP,2013-04-20 21:47:00,
2013-04-20 17:52:00,38.7,21.3,30.14,NW,313,2.7,8.3,49,0.00,,,0.04,WUHU215WMR968SP,2013-04-20 21:52:00,
2013-04-20 17:57:00,39.6,22.1,30.14,SSE,165,2.7,6.3,49,0.00,,,0.04,WUHU215WMR968SP,2013-04-20 21:57:00,
2013-04-20 18:02:00,39.9,22.4,30.14,North,353,3.6,5.8,49,0.00,,,0.04,WUHU215WMR968SP,2013-04-20 22:02:00,
2013-04-20 18:07:00,40.1,22.5,30.14,WNW,293,3.6,5.8,49,0.00,,,0.04,WUHU215WMR968SP,2013-04-20 22:07:00,
2013-04-20 18:12:00,39.9,19.7,30.14,ENE,62,4.9,6.3,44,0.00,,,0.04,WUHU215WMR968SP,2013-04-20 22:12:00,
2013-04-20 18:17:00,39.4,19.2,30.14,NNE,15,4.9,6.3,44,0.00,,,0.04,WUHU215WMR968SP,2013-04-20 22:17:00,
2013-04-20 18:22:00,38.8,18.7,30.14,ENE,58,4.5,8.1,44,0.00,,,0.04,WUHU215WMR968SP,2013-04-20 22:22:00,
2013-04-20 18:27:00,38.7,18.6,30.14,ENE,63,3.1,8.1,44,0.00,,,0.04,WUHU215WMR968SP,2013-04-20 22:27:00,
2013-04-20 18:32:00,38.7,18.6,30.17,NE,38,0.0,7.6,44,0.00,,,0.04,WUHU215WMR968SP,2013-04-20 22:32:00,
2013-04-20 18:37:00,39.4,19.2,30.17,ENE,62,3.1,7.6,44,0.00,,,0.04,WUHU215WMR968SP,2013-04-20 22:37:00,
2013-04-20 18:42:00,40.1,19.9,30.17,West,259,2.2,4.0,44,0.00,,,0.04,WUHU215WMR968SP,2013-04-20 22:42:00,
2013-04-20 18:47:00,40.1,19.9,30.17,WSW,258,0.0,4.9,44,0.00,,,0.04,WUHU215WMR968SP,2013-04-20 22:47:00,
2013-04-20 18:52:00,39.9,16.8,30.17,ENE,57,3.1,5.4,39,0.00,,,0.04,WUHU215WMR968SP,2013-04-20 22:52:00,
2013-04-20 18:57:00,39.4,16.3,30.17,East,89,4.0,6.3,39,0.00,,,0.04,WUHU215WMR968SP,2013-04-20 22:57:00,
2013-04-20 19:02:00,39.0,17.0,30.17,NE,40,4.9,6.3,41,0.00,,,0.04,WUHU215WMR968SP,2013-04-20 23:02:00,
2013-04-20 19:07:00,38.7,16.7,30.17,NNE,24,4.0,6.3,41,0.00,,,0.04,WUHU215WMR968SP,2013-04-20 23:07:00,
2013-04-20 19:12:00,38.8,16.8,30.17,NE,43,4.5,6.3,41,0.00,,,0.04,WUHU215WMR968SP,2013-04-20 23:12:00,
2013-04-20 19:17:00,38.1,16.2,30.17,NE,36,2.2,8.3,41,0.00,,,0.04,WUHU215WMR968SP,2013-04-20 23:17:00,
2013-04-20 19:22:00,37.8,15.9,30.17,ENE,58,4.5,8.3,41,0.00,,,0.04,WUHU215WMR968SP,2013-04-20 23:22:00,
2013-04-20 19:27:00,37.4,15.5,30.17,ENE,65,3.6,8.1,41,0.00,,,0.04,WUHU215WMR968SP,2013-04-20 23:27:00,
2013-04-20 19:32:00,37.2,15.3,30.17,NE,36,2.7,8.1,41,0.00,,,0.04,WUHU215WMR968SP,2013-04-20 23:32:00,
2013-04-20 19:37:00,36.9,15.1,30.17,NE,46,2.7,6.3,41,0.00,,,0.04,WUHU215WMR968SP,2013-04-20 23:37:00,
2013-04-20 19:42:00,36.5,14.7,30.17,NNW,331,3.6,6.3,41,0.00,,,0.04,WUHU215WMR968SP,2013-04-20 23:42:00,
2013-04-20 19:47:00,36.3,14.5,30.17,ENE,62,3.1,6.3,41,0.00,,,0.04,WUHU215WMR968SP,2013-04-20 23:47:00,
2013-04-20 19:52:00,36.3,14.5,30.17,North,353,2.2,5.8,41,0.00,,,0.04,WUHU215WMR968SP,2013-04-20 23:52:00,
2013-04-20 19:57:00,36.1,14.4,30.17,NNE,28,2.7,8.7,41,0.00,,,0.04,WUHU215WMR968SP,2013-04-20 23:57:00,
2013-04-20 20:02:00,35.8,14.1,30.17,NE,45,4.5,8.7,41,0.00,,,0.04,WUHU215WMR968SP,2013-04-21 00:02:00,
2013-04-20 20:07:00,35.6,13.9,30.17,NNE,28,2.2,6.3,41,0.00,,,0.04,WUHU215WMR968SP,2013-04-21 00:07:00,
2013-04-20 20:12:00,35.2,14.5,30.17,NE,47,4.0,6.3,43,0.00,,,0.04,WUHU215WMR968SP,2013-04-21 00:12:00,
2013-04-20 20:17:00,35.1,14.4,30.17,North,0,0.0,6.3,43,0.00,,,0.04,WUHU215WMR968SP,2013-04-21 00:17:00,
2013-04-20 20:22:00,34.9,14.2,30.17,NE,45,3.6,4.9,43,0.00,,,0.04,WUHU215WMR968SP,2013-04-21 00:22:00,
2013-04-20 20:27:00,34.7,14.0,30.17,NE,52,0.0,4.9,43,0.00,,,0.04,WUHU215WMR968SP,2013-04-21 00:27:00,
2013-04-20 20:32:00,34.5,15.7,30.17,NNE,27,0.0,4.0,46,0.00,,,0.04,WUHU215WMR968SP,2013-04-21 00:32:00,
2013-04-20 20:37:00,34.3,15.5,30.17,NNE,30,0.0,3.1,46,0.00,,,0.04,WUHU215WMR968SP,2013-04-21 00:37:00,
2013-04-20 20:42:00,34.0,15.2,30.17,NNE,30,0.0,2.7,46,0.00,,,0.04,WUHU215WMR968SP,2013-04-21 00:42:00,
2013-04-20 20:47:00,33.8,15.0,30.19,NNE,32,0.0,2.2,46,0.00,,,0.04,WUHU215WMR968SP,2013-04-21 00:47:00,
2013-04-20 20:52:00,33.4,15.5,30.19,NNE,18,0.0,3.1,48,0.00,,,0.04,WUHU215WMR968SP,2013-04-21 00:52:00,
2013-04-20 20:57:00,33.3,15.4,30.19,NNE,18,0.0,3.1,48,0.00,,,0.04,WUHU215WMR968SP,2013-04-21 00:57:00,
2013-04-20 21:02:00,33.1,15.2,30.19,NNE,18,0.0,0.0,48,0.00,,,0.04,WUHU215WMR968SP,2013-04-21 01:02:00,
2013-04-20 21:07:00,32.9,15.1,30.19,NNE,18,0.0,0.0,48,0.00,,,0.04,WUHU215WMR968SP,2013-04-21 01:07:00,
2013-04-20 21:12:00,32.7,16.5,30.19,NNE,18,0.0,0.0,51,0.00,,,0.04,WUHU215WMR968SP,2013-04-21 01:12:00,
2013-04-20 21:17:00,32.4,16.2,30.19,NNE,18,0.0,0.0,51,0.00,,,0.04,WUHU215WMR968SP,2013-04-21 01:17:00,
2013-04-20 21:22:00,32.0,15.9,30.19,NNE,18,0.0,0.0,51,0.00,,,0.04,WUHU215WMR968SP,2013-04-21 01:22:00,
2013-04-20 21:27:00,31.5,15.4,30.19,NNE,18,0.0,0.0,51,0.00,,,0.04,WUHU215WMR968SP,2013-04-21 01:27:00,
2013-04-20 21:32:00,31.3,15.2,30.19,NNE,18,0.0,0.0,51,0.00,,,0.04,WUHU215WMR968SP,2013-04-21 01:32:00,
2013-04-20 21:37:00,30.9,15.6,30.19,NNE,18,0.0,0.0,53,0.00,,,0.04,WUHU215WMR968SP,2013-04-21 01:37:00,
2013-04-20 21:42:00,30.6,15.3,30.19,NNE,18,0.0,0.0,53,0.00,,,0.04,WUHU215WMR968SP,2013-04-21 01:42:00,
2013-04-20 21:47:00,30.2,15.7,30.22,NNE,18,0.0,0.0,54,0.00,,,0.04,WUHU215WMR968SP,2013-04-21 01:47:00,
2013-04-20 21:52:00,29.8,15.3,30.22,NNE,18,0.0,0.0,54,0.00,,,0.04,WUHU215WMR968SP,2013-04-21 01:52:00,
2013-04-20 21:57:00,29.5,16.5,30.22,NNE,18,0.0,0.0,58,0.00,,,0.04,WUHU215WMR968SP,2013-04-21 01:57:00,
2013-04-20 22:02:00,29.1,16.8,30.22,NNE,18,0.0,0.0,60,0.00,,,0.04,WUHU215WMR968SP,2013-04-21 02:02:00,
2013-04-20 22:07:00,28.9,17.3,30.22,NNE,18,0.0,0.0,61,0.00,,,0.04,WUHU215WMR968SP,2013-04-21 02:07:00,
2013-04-20 22:12:00,28.9,17.9,30.22,NNE,18,0.0,0.0,63,0.00,,,0.04,WUHU215WMR968SP,2013-04-21 02:12:00,
2013-04-20 22:17:00,28.6,17.6,30.22,NNE,18,0.0,0.0,63,0.00,,,0.04,WUHU215WMR968SP,2013-04-21 02:17:00,
2013-04-20 22:22:00,28.2,17.9,30.22,NNE,18,0.0,0.0,65,0.00,,,0.04,WUHU215WMR968SP,2013-04-21 02:22:00,
2013-04-20 22:27:00,28.2,17.9,30.22,NNE,18,0.0,0.0,65,0.00,,,0.04,WUHU215WMR968SP,2013-04-21 02:27:00,
2013-04-20 22:32:00,28.2,19.1,30.22,NNE,18,0.0,0.0,68,0.00,,,0.04,WUHU215WMR968SP,2013-04-21 02:32:00,
2013-04-20 22:37:00,28.2,19.6,30.22,NNE,18,0.0,0.0,70,0.00,,,0.04,WUHU215WMR968SP,2013-04-21 02:37:00,
2013-04-20 22:42:00,28.0,19.4,30.22,NNE,18,0.0,0.0,70,0.00,,,0.04,WUHU215WMR968SP,2013-04-21 02:42:00,
2013-04-20 22:47:00,27.9,19.3,30.22,NNE,18,0.0,0.0,70,0.00,,,0.04,WUHU215WMR968SP,2013-04-21 02:47:00,
2013-04-20 22:52:00,27.7,19.7,30.22,NNE,18,0.0,0.0,71,0.00,,,0.04,WUHU215WMR968SP,2013-04-21 02:52:00,
2013-04-20 22:57:00,27.3,19.3,30.22,NNE,18,0.0,0.0,71,0.00,,,0.04,WUHU215WMR968SP,2013-04-21 02:57:00,
2013-04-20 23:02:00,27.0,19.0,30.25,NNE,18,0.0,0.0,71,0.00,,,0.04,WUHU215WMR968SP,2013-04-21 03:02:00,
2013-04-20 23:07:00,26.6,18.6,30.25,NNE,18,0.0,0.0,71,0.00,,,0.04,WUHU215WMR968SP,2013-04-21 03:07:00,
2013-04-20 23:12:00,26.6,19.2,30.25,NNE,18,0.0,0.0,73,0.00,,,0.04,WUHU215WMR968SP,2013-04-21 03:12:00,
2013-04-20 23:17:00,26.8,18.8,30.25,NNE,18,0.0,0.0,71,0.00,,,0.04,WUHU215WMR968SP,2013-04-21 03:17:00,
2013-04-20 23:22:00,26.8,19.4,30.25,NNE,18,0.0,0.0,73,0.00,,,0.04,WUHU215WMR968SP,2013-04-21 03:22:00,
2013-04-20 23:27:00,26.8,19.4,30.25,NNE,18,0.0,0.0,73,0.00,,,0.04,WUHU215WMR968SP,2013-04-21 03:27:00,
2013-04-20 23:32:00,26.6,19.7,30.25,NNE,18,0.0,0.0,75,0.00,,,0.04,WUHU215WMR968SP,2013-04-21 03:32:00,
2013-04-20 23:37:00,26.2,19.3,30.25,NNE,18,0.0,0.0,75,0.00,,,0.04,WUHU215WMR968SP,2013-04-21 03:37:00,
2013-04-20 23:42:00,26.2,19.3,30.25,NNE,18,0.0,0.0,75,0.00,,,0.04,WUHU215WMR968SP,2013-04-21 03:42:00,
2013-04-20 23:47:00,26.1,19.7,30.25,NNE,18,0.0,0.0,77,0.00,,,0.04,WUHU215WMR968SP,2013-04-21 03:47:00,
2013-04-20 23:52:00,25.9,19.6,30.25,NNE,18,0.0,0.0,77,0.00,,,0.04,WUHU215WMR968SP,2013-04-21 03:52:00,
2013-04-20 23:57:00,25.9,19.6,30.25,NNE,18,0.0,0.0,77,0.00,,,0.04,WUHU215WMR968SP,2013-04-21 03:57:00,